Regional Weather Roundup
Issued by NWS

Home | Current Version | Previous Version | Graphics & Text | Print | Product List | Glossary On
Versions: 1 2 3 4 5 6 7 8 9 10 11 12 13 14 15 16 17 18 19 20 21 22 23 24 25 26 27 28 29 30 31 32 33 34 35 36 37 38 39 40 41 42 43 44 45 46 47 48 49 50
000
ASUS45 KABQ 231910
RWRNM
WEATHER ROUNDUP FOR NEW MEXICO
NATIONAL WEATHER SERVICE ALBUQUERQUE NM
100 PM MDT WED JUL 23 2014

NOTE: "FAIR" MEANS FEW OR NO CLOUDS BELOW 12,000 FEET AGL WITH NO
       SIGNIFICANT WEATHER OR OBSTRUCTIONS TO VISION.

      THIS PRODUCT IS RELEASED AS TWO VERSIONS.  ONE VERSION NEAR
      THE TOP OF THE HOUR CONTAINING PRELIMINARY DATA FROM ALBUQUERQUE
      AND OTHER STATIONS.  A FINAL VERSION WITH ADDITIONAL DATA IS
      ISSUED ABOUT 10 MINUTES AFTER THE HOUR.

NMZ501-503-504-510>518-232000-
NORTHWEST PLATEAU/NORTHCENTRAL MOUNTAINS

CITY           SKY/WX    TMP DP  RH WIND       PRES   REMARKS
FARMINGTON     SUNNY     93  37  14 S8        30.30F
LOS ALAMOS     PTSUNNY   77  51  40 S6        30.51S
SANTA FE       PTSUNNY   79  55  43 NE14G22   30.44R
TAOS           PTSUNNY   84  45  24 SW9       30.47F
ANGEL FIRE     MOCLDY    74  45  35 S9        30.60S

$$
NMZ402-403-502-505>509-232000-
WESTCENTRAL MOUNTAINS/SOUTHWEST MOUNTAINS

CITY           SKY/WX    TMP DP  RH WIND       PRES   REMARKS
GALLUP         MOSUNNY   87  45  23 VRB5      30.38F
GRANTS         SUNNY     84  49  28 SE17G24   30.44F
SILVER CITY    PTSUNNY   84  54  34 SE18      30.35F

$$
NMZ407-409-411-412-232000-
SOUTHERN DESERTS

CITY           SKY/WX    TMP DP  RH WIND       PRES   REMARKS
LORDSBURG      FAIR      90  55  31 SE21      30.24F
DEMING         PTSUNNY   88  57  34 SE13      30.24F
LAS CRUCES     SUNNY     92  52  26 SE12G20   30.28F
HOLLOMAN AFB   MOSUNNY   93  54  26 VRB6      30.22F
ALAMOGORDO     MOSUNNY   91  48  22 W5        30.25F
T OR C         MOSUNNY   88  54  31 VRB6      30.29F

$$
NMZ519>523-232000-
CENTRAL VALLEYS/CENTRAL HIGHLANDS

CITY           SKY/WX    TMP DP  RH WIND       PRES   REMARKS
ALBUQUERQUE    PTSUNNY   83  51  33 S12G23    30.36F
DOUBLE EAGLE   MOSUNNY   84  55  37 E6        30.40F
MORIARTY ARPT  FAIR      83  53  34 SE10      30.44F
CLINES CORNERS MOSUNNY   81  53  37 SE14G22   30.49F
BELEN          FAIR      86  53  31 N3        30.33F
SOCORRO        FAIR      92  49  23 S8        30.30F

$$
NMZ524>526-539-540-232000-
SOUTHCENTRAL MOUNTAINS

CITY           SKY/WX    TMP DP  RH WIND       PRES   REMARKS
RUIDOSO        MOSUNNY   77  50  38 MISG      30.51S

$$
NMZ527>531-232000-
NORTHEAST HIGHLANDS/NORTHEAST PLAINS

CITY           SKY/WX    TMP DP  RH WIND       PRES   REMARKS
LAS VEGAS      PTSUNNY   77  54  44 VRB5      30.50F
RATON          SUNNY     87  47  24 S12       30.43F
CLAYTON        SUNNY     91  49  23 S9G21     30.34F

$$
NMZ532>537-232000-
EASTCENTRAL PLAINS

CITY           SKY/WX    TMP DP  RH WIND       PRES   REMARKS
TUCUMCARI      MOSUNNY   92  58  31 VRB7      30.28F
CANNON AFB     MOSUNNY   88  60  38 SE8       30.33S
CLOVIS AIRPORT NOT AVBL

$$
NMZ028-029-538-232000-
SOUTHEAST PLAINS

CITY           SKY/WX    TMP DP  RH WIND       PRES   REMARKS
ROSWELL        SUNNY     91  58  32 MISG      30.25F
ARTESIA        SUNNY     91  57  31 NE6       30.24F
CARLSBAD       SUNNY     95  51  22 NE5       30.20F
HOBBS          SUNNY     91  48  22 E10G17    30.26F


$$



USA.gov is the U.S. government's official web portal to all federal, state and local government web resources and services.